{"data":{"norad_id":53005,"intl_designator":"2022-076V","name":"STARLINK-4288","alt_names":[],"object_type":"PAYLOAD","status":"ACTIVE","operator":null,"country":"US","launch_date":"2022-07-07","launch_site_code":"AFETR","launch_vehicle":null,"mission":null,"orbit_class":"UNKNOWN","rcs_meters":null,"size_class":null,"mass_kg":null,"dimensions":null,"purposes":["comms"],"wikipedia_slug":null,"has_3d_model":false,"image_url":null,"decayed_at":null,"tle_current":{"epoch":"2026-05-25T02:25:25.451328Z","epoch_age_seconds":73087,"freshness":"FRESH","line1":"1 53005U 22076V   26145.10098902 -.00000002  00000+0  17977-4 0  9994","line2":"2 53005  53.2150 111.0980 0001419  77.2557 282.8593 15.08837897214380","mean_motion":15.08837897,"eccentricity":0.0001419,"inclination_deg":53.215,"raan_deg":111.098,"arg_perigee_deg":77.2557,"mean_anomaly_deg":282.8593,"bstar":1.7977e-5,"rev_number":21438,"period_min":95.437687697474,"perigee_km":538.76816886192,"apogee_km":540.73146514058,"semimajor_km":6917.8868170013,"source":"CELESTRAK","updated_at":"2026-05-25T13:38:17.277174Z"}}}